| time (UTC) | temp F | wind direction | speed knots | gust knots | rain 1hr in | rain 24hr in | rain mn in | humidity % | barometer mb |
| 20260510043441 | 49 | 236 | 4.3 | 7.0 | 0.00 | 0.00 | 0.00 | 74 | 1001.4 |
| 20260510042440 | 49 | 219 | 5.2 | 11.3 | 0.00 | 0.00 | 0.00 | 73 | 1001.1 |
| 20260510041439 | 49 | 204 | 6.1 | 12.2 | 0.00 | 0.00 | 0.00 | 73 | 1000.8 |
| 20260510040439 | 49 | 234 | 4.3 | 7.0 | 0.00 | 0.00 | 0.00 | 73 | 1000.7 |
| 20260510035439 | 50 | 229 | 4.3 | 6.1 | 0.00 | 0.00 | 0.00 | 72 | 1000.6 |
| 20260510034439 | 50 | 229 | 5.2 | 7.8 | 0.00 | 0.00 | 0.00 | 71 | 1000.5 |
| 20260510033439 | 51 | 244 | 6.1 | 10.4 | 0.00 | 0.00 | 0.00 | 70 | 1000.2 |
| 20260510032439 | 51 | 219 | 4.3 | 7.0 | 0.00 | 0.00 | 0.00 | 69 | 999.7 |
| 20260510031438 | 51 | 221 | 2.6 | 6.1 | 0.00 | 0.00 | 0.00 | 68 | 999.4 |
| 20260510025440 | 51 | 221 | 4.3 | 10.4 | 0.00 | 0.00 | 0.00 | 67 | 998.9 |
| 20260510024440 | 51 | 218 | 4.3 | 7.0 | 0.00 | 0.00 | 0.00 | 67 | 998.8 |
| 20260510023439 | 51 | 221 | 4.3 | 9.6 | 0.00 | 0.00 | 0.00 | 67 | 998.4 |
| 20260510021438 | 52 | 208 | 2.6 | 5.2 | 0.00 | 0.00 | 0.00 | 67 | 998.0 |
| 20260510020438 | 52 | 212 | 4.3 | 9.6 | 0.00 | 0.00 | 0.00 | 67 | 997.7 |
| 20260510015440 | 52 | 234 | 3.5 | 7.8 | 0.00 | 0.00 | 0.00 | 68 | 997.5 |
| 20260510014439 | 52 | 227 | 3.5 | 8.7 | 0.00 | 0.00 | 0.00 | 69 | 997.3 |
| 20260510012438 | 52 | 214 | 3.5 | 6.1 | 0.00 | 0.00 | 0.00 | 70 | 996.8 |
| 20260510011438 | 52 | 202 | 3.5 | 8.7 | 0.00 | 0.00 | 0.00 | 71 | 996.8 |
| 20260510010440 | 52 | 234 | 4.3 | 10.4 | 0.00 | 0.00 | 0.00 | 71 | 996.7 |
| 20260510004456 | 52 | 218 | 5.2 | 10.4 | 0.00 | 0.00 | 0.00 | 70 | 996.7 |
| 20260510003438 | 52 | 227 | 5.2 | 8.7 | 0.00 | 0.00 | 0.00 | 70 | 996.7 |
| 20260510002439 | 53 | 236 | 4.3 | 7.0 | 0.00 | 0.00 | 0.00 | 70 | 996.5 |
| 20260510001439 | 54 | 199 | 5.2 | 7.0 | 0.00 | 0.00 | 0.00 | 69 | 996.6 |
| 20260510000441 | 54 | 216 | 5.2 | 12.2 | 0.00 | 0.00 | 0.00 | 68 | 996.6 |
| 20260509233439 | 55 | 219 | 6.1 | 15.6 | 0.00 | 0.00 | 0.00 | 68 | 996.6 |
| 20260509231439 | 56 | 232 | 7.0 | 13.0 | 0.00 | 0.00 | 0.00 | 69 | 996.4 |
| 20260509230440 | 56 | 234 | 7.0 | 10.4 | 0.00 | 0.00 | 0.00 | 68 | 995.9 |
| 20260509225442 | 56 | 227 | 6.1 | 10.4 | 0.00 | 0.00 | 0.00 | 69 | 995.7 |
| 20260509224439 | 56 | 227 | 6.1 | 11.3 | 0.00 | 0.00 | 0.00 | 69 | 995.2 |
| 20260509223438 | 57 | 206 | 4.3 | 10.4 | 0.00 | 0.00 | 0.00 | 69 | 994.7 |
| 20260509222438 | 57 | 163 | 1.7 | 5.2 | 0.00 | 0.00 | 0.00 | 67 | 994.1 |
| 20260509220440 | 56 | 184 | 0.9 | 3.5 | 0.00 | 0.00 | 0.00 | 65 | 993.2 |
| 20260509215440 | 56 | 167 | 1.7 | 4.3 | 0.00 | 0.00 | 0.00 | 64 | 993.1 |
| 20260509212438 | 56 | 216 | 5.2 | 9.6 | 0.00 | 0.00 | 0.00 | 61 | 992.7 |
| 20260509211439 | 55 | 253 | 2.6 | 5.2 | 0.00 | 0.00 | 0.00 | 61 | 992.2 |
| 20260509210438 | 55 | 34 | 1.7 | 3.5 | 0.00 | 0.00 | 0.00 | 60 | 991.8 |
| 20260509205441 | 55 | 30 | 1.7 | 2.6 | 0.00 | 0.00 | 0.00 | 60 | 991.9 |
| 20260509204440 | 55 | 43 | 1.7 | 2.6 | 0.00 | 0.00 | 0.00 | 59 | 991.7 |
| 20260509203440 | 55 | 49 | 2.6 | 3.5 | 0.00 | 0.00 | 0.00 | 58 | 991.4 |
| 20260509202439 | 55 | 30 | 1.7 | 3.5 | 0.00 | 0.00 | 0.00 | 57 | 991.1 |
| 20260509200440 | 57 | 36 | 1.7 | 3.5 | 0.00 | 0.00 | 0.00 | 55 | 991.0 |
| 20260509195438 | 58 | 270 | 0.9 | 1.7 | 0.00 | 0.00 | 0.00 | 55 | 990.9 |
| 20260509193439 | 59 | 135 | 0.9 | 3.5 | 0.00 | 0.00 | 0.00 | 54 | 990.5 |
| 20260509192440 | 59 | 197 | 0.9 | 2.6 | 0.00 | 0.00 | 0.00 | 54 | 990.3 |
| 20260509191439 | 60 | 114 | 3.5 | 7.0 | 0.00 | 0.00 | 0.00 | 53 | 990.4 |
| 20260509190439 | 60 | 148 | 2.6 | 5.2 | 0.00 | 0.00 | 0.00 | 53 | 990.0 |
| 20260509185439 | 60 | 150 | 3.5 | 5.2 | 0.00 | 0.00 | 0.00 | 53 | 990.1 |
| 20260509184438 | 59 | 150 | 3.5 | 8.7 | 0.00 | 0.00 | 0.00 | 54 | 989.7 |
| 20260509183438 | 59 | 159 | 1.7 | 4.3 | 0.00 | 0.00 | 0.00 | 54 | 989.8 |
| 20260509180439 | 59 | 221 | 2.6 | 7.0 | 0.00 | 0.00 | 0.00 | 54 | 989.5 |
| 20260509175438 | 59 | 199 | 1.7 | 3.5 | 0.00 | 0.00 | 0.00 | 55 | 989.5 |
| 20260509174438 | 59 | 133 | 2.6 | 5.2 | 0.00 | 0.00 | 0.00 | 55 | 989.2 |
| 20260509173440 | 59 | 135 | 0.9 | 2.6 | 0.00 | 0.00 | 0.00 | 55 | 989.1 |
| 20260509172438 | 59 | 210 | 4.3 | 7.8 | 0.00 | 0.00 | 0.00 | 55 | 989.2 |
| 20260509170439 | 59 | 232 | 1.7 | 7.0 | 0.00 | 0.00 | 0.00 | 55 | 989.0 |
| 20260509165438 | 59 | 154 | 3.5 | 6.1 | 0.00 | 0.00 | 0.00 | 55 | 989.0 |
| 20260509164439 | 58 | 229 | 3.5 | 7.0 | 0.00 | 0.00 | 0.00 | 55 | 989.3 |
| 20260509163438 | 58 | 186 | 0.9 | 1.7 | 0.00 | 0.00 | 0.00 | 56 | 989.0 |
| 20260509162438 | 59 | 171 | 0.9 | 3.5 | 0.00 | 0.00 | 0.00 | 55 | 988.8 |
| 20260509161441 | 59 | 128 | 2.6 | 4.3 | 0.00 | 0.00 | 0.00 | 56 | 989.2 |
| 20260509160441 | 59 | 112 | 2.6 | 4.3 | 0.00 | 0.00 | 0.00 | 56 | 989.0 |
| 20260509155438 | 59 | 193 | 2.6 | 8.7 | 0.00 | 0.00 | 0.00 | 56 | 988.9 |
| 20260509154441 | 58 | 182 | 4.3 | 9.6 | 0.00 | 0.00 | 0.00 | 56 | 989.0 |
| 20260509153441 | 58 | 165 | 2.6 | 4.3 | 0.00 | 0.00 | 0.00 | 56 | 989.1 |
| 20260509151439 | 58 | 139 | 2.6 | 5.2 | 0.00 | 0.00 | 0.00 | 57 | 989.2 |
| 20260509150439 | 57 | 152 | 1.7 | 4.3 | 0.00 | 0.00 | 0.00 | 57 | 989.2 |
| 20260509144439 | 57 | 111 | 3.5 | 9.6 | 0.00 | 0.00 | 0.00 | 57 | 989.3 |
| 20260509143439 | 57 | 66 | 4.3 | 7.8 | 0.00 | 0.00 | 0.00 | 57 | 989.4 |
| 20260509142440 | 57 | 66 | 3.5 | 5.2 | 0.00 | 0.00 | 0.00 | 57 | 989.8 |
| 20260509141439 | 57 | 111 | 5.2 | 9.6 | 0.00 | 0.00 | 0.00 | 57 | 989.9 |
| 20260509140443 | 57 | 88 | 1.7 | 3.5 | 0.00 | 0.00 | 0.00 | 57 | 989.9 |
| 20260509135439 | 57 | 156 | 0.9 | 1.7 | 0.00 | 0.00 | 0.00 | 57 | 990.0 |
| 20260509133439 | 58 | 103 | 3.5 | 8.7 | 0.00 | 0.00 | 0.00 | 56 | 990.0 |
| 20260509132438 | 58 | 75 | 1.7 | 5.2 | 0.00 | 0.00 | 0.00 | 57 | 990.3 |
| 20260509130439 | 58 | 197 | 3.5 | 14.8 | 0.00 | 0.00 | 0.00 | 56 | 990.7 |
| 20260509124438 | 59 | 141 | 2.6 | 7.8 | 0.00 | 0.00 | 0.00 | 56 | 990.7 |
| 20260509123440 | 59 | 167 | 4.3 | 8.7 | 0.00 | 0.00 | 0.00 | 56 | 991.0 |
| 20260509121441 | 58 | 139 | 3.5 | 5.2 | 0.00 | 0.00 | 0.00 | 57 | 991.3 |
| 20260509115444 | 58 | 163 | 4.3 | 9.6 | 0.00 | 0.00 | 0.00 | 58 | 991.5 |
| 20260509113440 | 58 | 36 | 6.1 | 10.4 | 0.00 | 0.00 | 0.00 | 59 | 991.6 |
| 20260509112440 | 58 | 135 | 4.3 | 9.6 | 0.00 | 0.00 | 0.00 | 60 | 991.5 |
| 20260509111439 | 58 | 96 | 2.6 | 11.3 | 0.00 | 0.00 | 0.00 | 61 | 991.7 |
| 20260509110439 | 58 | 154 | 5.2 | 7.0 | 0.00 | 0.00 | 0.00 | 62 | 991.4 |
| 20260509105439 | 57 | 56 | 6.1 | 13.9 | 0.00 | 0.00 | 0.00 | 63 | 991.7 |
| 20260509104439 | 57 | 86 | 3.5 | 15.6 | 0.00 | 0.00 | 0.00 | 64 | 991.5 |
| 20260509103438 | 57 | 101 | 2.6 | 8.7 | 0.00 | 0.00 | 0.00 | 66 | 991.3 |
| 20260509102440 | 57 | 193 | 3.5 | 7.8 | 0.00 | 0.00 | 0.00 | 67 | 991.4 |
| 20260509101439 | 56 | 122 | 5.2 | 11.3 | 0.00 | 0.00 | 0.00 | 70 | 991.4 |
| 20260509100440 | 56 | 84 | 6.1 | 13.9 | 0.00 | 0.00 | 0.00 | 73 | 991.2 |
| 20260509095440 | 55 | 64 | 6.1 | 8.7 | 0.00 | 0.00 | 0.00 | 75 | 991.4 |
| 20260509093439 | 53 | 101 | 5.2 | 13.0 | 0.00 | 0.00 | 0.00 | 79 | 991.4 |
| 20260509091439 | 51 | 246 | 2.6 | 6.1 | 0.00 | 0.00 | 0.00 | 81 | 991.2 |
| 20260509090439 | 51 | 315 | 0.9 | 2.6 | 0.00 | 0.00 | 0.00 | 81 | 991.0 |
| 20260509085438 | 50 | 240 | 1.7 | 2.6 | 0.00 | 0.00 | 0.00 | 81 | 991.2 |
| 20260509084441 | 49 | 56 | 0.9 | 2.6 | 0.00 | 0.00 | 0.00 | 80 | 990.9 |
| 20260509081448 | 50 | 66 | 0.0 | 1.7 | 0.00 | 0.00 | 0.00 | 80 | 991.0 |
| 20260509080438 | 50 | 32 | 0.9 | 1.7 | 0.00 | 0.00 | 0.00 | 80 | 991.1 |
| 20260509074440 | 50 | 45 | 1.7 | 3.5 | 0.00 | 0.00 | 0.00 | 80 | 991.0 |
| 20260509073438 | 51 | 28 | 1.7 | 3.5 | 0.00 | 0.00 | 0.00 | 79 | 990.9 |
| 20260509072438 | 51 | 38 | 2.6 | 5.2 | 0.00 | 0.00 | 0.00 | 79 | 990.9 |
| 20260509071440 | 51 | 21 | 1.7 | 2.6 | 0.00 | 0.00 | 0.00 | 79 | 990.7 |
| 20260509070439 | 52 | 45 | 0.9 | 1.7 | 0.00 | 0.00 | 0.00 | 79 | 990.3 |
| 20260509065438 | 52 | 45 | 1.7 | 3.5 | 0.00 | 0.00 | 0.00 | 79 | 990.4 |
| 20260509064439 | 53 | 45 | 0.0 | 1.7 | 0.00 | 0.00 | 0.00 | 79 | 990.4 |
| 20260509063439 | 53 | 144 | 0.0 | 1.7 | 0.00 | 0.00 | 0.00 | 79 | 990.3 |
| 20260509062438 | 53 | 182 | 0.9 | 2.6 | 0.00 | 0.00 | 0.00 | 79 | 990.4 |
| 20260509061440 | 53 | 58 | 0.0 | 1.7 | 0.00 | 0.00 | 0.00 | 78 | 990.4 |
| 20260509060439 | 54 | 172 | 0.9 | 3.5 | 0.00 | 0.00 | 0.00 | 78 | 990.4 |
| 20260509055439 | 54 | 52 | 0.0 | 0.9 | 0.00 | 0.00 | 0.00 | 79 | 990.4 |
| 20260509054439 | 54 | 159 | 0.9 | 3.5 | 0.00 | 0.00 | 0.00 | 78 | 990.8 |
| 20260509052441 | 55 | 49 | 3.5 | 7.0 | 0.00 | 0.00 | 0.00 | 78 | 990.5 |
| 20260509050438 | 56 | 49 | 4.3 | 9.6 | 0.00 | 0.00 | 0.00 | 77 | 990.5 |
| 20260509045439 | 56 | 41 | 2.6 | 5.2 | 0.00 | 0.00 | 0.00 | 77 | 990.6 |
| 20260509044440 | 56 | 45 | 2.6 | 3.5 | 0.00 | 0.00 | 0.00 | 77 | 990.6 |